Date String (YYYY-MM-DD hh:mm:ss) UTC,Instrument flags,Ambient pressure (hPa),Sample flow (lpm),Bypass flow (lpm),Sample temperature (°C),Ambient temperature (°C),ASC tube jacket temperature (°C),LED temperature (°C),Box temperature (°C),Sample RH (%),Span deviation,Mass concentration (μg/m³),Mass concentration (μg/m³),Mass concentration (μg/m³)
DateTimeUTC,F1_M11,P_M11,Q1_M11,Q2_M11,T1_M11,T2_M11,T3_M11,T4_M11,T5_M11,U1_M11,ZSPAN_M11,X0_M11,X2_M11,X1_M11
2022-07-29 21:00:00,,0830.5,5.00,0.00,31.3,27.9,00.0,39.6,32.0,30.9,0000.0,0013.82,0007.36,0006.85
2022-07-29 21:01:00,,0830.5,5.00,0.00,31.3,28.1,00.0,39.6,32.0,31.0,0000.0,0013.96,0007.26,0006.73
2022-07-29 21:02:00,,0830.5,5.00,0.00,31.2,28.2,00.0,39.6,32.0,30.8,0000.0,0015.24,0007.13,0006.61
2022-07-29 21:03:00,,0830.5,5.00,0.00,31.2,28.4,00.0,39.6,32.1,31.1,0000.0,0015.64,0007.00,0006.49
2022-07-29 21:04:00,,0830.5,5.01,0.00,31.2,28.5,00.0,39.6,32.1,30.8,0000.0,0015.85,0006.93,0006.37
2022-07-29 21:05:00,,0830.5,5.00,0.00,31.1,28.6,00.0,39.6,32.1,30.8,0000.0,0015.22,0006.80,0006.24
2022-07-29 21:06:00,,0830.5,5.00,0.00,31.1,28.5,00.0,39.6,32.1,30.9,0000.0,0014.58,0006.69,0006.11
2022-07-29 21:07:00,,0830.5,5.01,0.00,31.1,28.0,00.0,39.5,32.0,31.1,0000.0,0013.61,0006.55,0005.98
2022-07-29 21:08:00,,0830.5,4.99,0.00,31.0,27.4,00.0,39.5,31.8,30.8,0000.0,0013.43,0006.41,0005.85
2022-07-29 21:09:00,,0830.5,5.01,0.00,30.9,27.2,00.0,39.4,31.8,31.1,0000.0,0013.38,0006.37,0005.79
2022-07-29 21:10:00,,0830.5,4.98,0.00,30.8,27.3,00.0,39.4,31.7,31.0,0000.0,0012.84,0006.36,0005.77
2022-07-29 21:11:00,,0830.5,5.01,0.00,30.7,27.4,00.0,39.3,31.7,30.5,0000.0,0012.63,0006.32,0005.73
2022-07-29 21:12:00,,0830.4,4.99,0.00,30.6,27.6,00.0,39.3,31.7,30.7,0000.0,0012.46,0006.32,0005.73
2022-07-29 21:13:00,,0830.4,5.01,0.00,30.6,27.7,00.0,39.3,31.7,30.5,0000.0,0011.54,0006.31,0005.72
2022-07-29 21:14:00,,0830.4,5.00,0.00,30.6,27.9,00.0,39.2,31.8,30.9,0000.0,0010.56,0006.27,0005.71
2022-07-29 21:15:00,,0830.4,5.01,0.00,30.5,28.1,00.0,39.2,31.8,30.6,0000.0,0010.36,0006.22,0005.68
2022-07-29 21:16:00,,0830.4,5.00,0.00,30.5,28.2,00.0,39.2,31.8,30.7,0000.0,0009.81,0006.19,0005.65
2022-07-29 21:17:00,,0830.4,4.99,0.00,30.5,28.3,00.0,39.2,31.8,30.8,0000.0,0009.97,0006.17,0005.61
2022-07-29 21:18:00,,0830.4,4.99,0.00,30.5,28.4,00.0,39.2,31.9,30.0,0000.0,0009.99,0006.10,0005.56
2022-07-29 21:19:00,,0830.4,5.00,0.00,30.5,28.5,00.0,39.2,31.9,30.3,0000.0,0009.97,0006.05,0005.53
2022-07-29 21:20:00,,0830.4,5.00,0.00,30.5,28.4,00.0,39.1,31.9,31.0,0000.0,0009.78,0005.99,0005.49
2022-07-29 21:21:00,,0830.4,5.01,0.00,30.4,27.8,00.0,39.1,31.7,30.4,0000.0,0009.64,0005.92,0005.44
2022-07-29 21:22:00,,0830.4,4.99,0.00,30.4,27.3,00.0,39.0,31.6,29.8,0000.0,0009.47,0005.90,0005.39
2022-07-29 21:23:00,,0830.4,5.01,0.00,30.3,27.2,00.0,39.0,31.5,29.1,0000.0,0009.32,0005.86,0005.33
2022-07-29 21:24:00,,0830.4,4.99,0.00,30.2,27.3,00.0,38.9,31.4,30.0,0000.0,0009.09,0005.78,0005.27
2022-07-29 21:25:00,,0830.4,5.01,0.00,30.1,27.4,00.0,38.9,31.4,29.3,0000.0,0009.07,0005.72,0005.19
2022-07-29 21:26:00,,0830.4,4.99,0.00,30.1,27.6,00.0,38.9,31.5,29.5,0000.0,0009.01,0005.64,0005.12
2022-07-29 21:27:00,,0830.4,5.00,0.00,30.1,27.7,00.0,38.9,31.5,28.7,0000.0,0008.93,0005.57,0005.04
2022-07-29 21:28:00,,0830.4,5.00,0.00,30.1,27.9,00.0,38.8,31.6,29.3,0000.0,0008.80,0005.51,0004.98
2022-07-29 21:29:00,,0830.3,4.99,0.00,30.0,28.0,00.0,38.8,31.6,28.6,0000.0,0009.43,0005.41,0004.90
2022-07-29 21:30:00,,0830.4,5.00,0.00,30.0,28.2,00.0,38.8,31.7,28.7,0000.0,0009.32,0005.35,0004.85
2022-07-29 21:31:00,,0830.3,5.00,0.00,30.1,28.3,00.0,38.8,31.7,28.8,0000.0,0009.22,0005.26,0004.78
2022-07-29 21:32:00,,0830.3,5.00,0.00,30.1,28.4,00.0,38.8,31.7,29.2,0000.0,0009.18,0005.22,0004.74
2022-07-29 21:33:00,,0830.2,5.00,0.00,30.1,28.5,00.0,38.8,31.8,29.8,0000.0,0008.84,0005.14,0004.70
2022-07-29 21:34:00,,0830.2,4.99,0.00,30.1,28.6,00.0,38.8,31.8,29.2,0000.0,0008.65,0005.06,0004.66
2022-07-29 21:35:00,,0830.2,5.00,0.00,30.1,28.5,00.0,38.8,31.8,28.8,0000.0,0008.64,0005.02,0004.63
2022-07-29 21:36:00,,0830.1,5.01,0.00,30.1,27.8,00.0,38.8,31.5,29.1,0000.0,0009.27,0004.97,0004.62
2022-07-29 21:37:00,,0830.2,4.98,0.00,30.0,27.3,00.0,38.7,31.4,28.2,0000.0,0009.58,0004.96,0004.62
2022-07-29 21:38:00,,0830.1,5.02,0.00,29.9,27.2,00.0,38.7,31.4,27.4,0000.0,0009.57,0004.94,0004.62
2022-07-29 21:39:00,,0830.1,4.99,0.00,29.8,27.3,00.0,38.7,31.3,27.5,0000.0,0009.50,0004.91,0004.61
2022-07-29 21:40:00,,0830.1,4.99,0.00,29.8,27.4,00.0,38.6,31.4,28.0,0000.0,0008.52,0004.87,0004.58
2022-07-29 21:41:00,,0830.1,5.00,0.00,29.8,27.6,00.0,38.6,31.4,27.8,0000.0,0008.65,0004.86,0004.56
2022-07-29 21:42:00,,0830.1,5.00,0.00,29.8,27.8,00.0,38.6,31.5,27.4,0000.0,0008.64,0004.84,0004.53
2022-07-29 21:43:00,,0830.1,5.00,0.00,29.8,28.0,00.0,38.6,31.5,28.0,0000.0,0008.55,0004.79,0004.50
2022-07-29 21:44:00,,0830.1,5.00,0.00,29.8,28.1,00.0,38.6,31.5,28.9,0000.0,0008.52,0004.77,0004.48
2022-07-29 21:45:00,,0830.1,5.00,0.00,29.8,28.3,00.0,38.6,31.6,28.9,0000.0,0008.61,0004.73,0004.45
2022-07-29 21:46:00,,0830.1,5.00,0.00,29.8,28.4,00.0,38.6,31.6,28.0,0000.0,0009.08,0004.73,0004.43
2022-07-29 21:47:00,,0830.1,5.00,0.00,29.9,28.5,00.0,38.6,31.7,28.1,0000.0,0008.38,0004.74,0004.42
2022-07-29 21:48:00,,0830.1,4.99,0.00,29.9,28.5,00.0,38.6,31.7,29.0,0000.0,0007.97,0004.70,0004.39
2022-07-29 21:49:00,,0830.1,5.00,0.00,29.9,27.9,00.0,38.6,31.5,28.1,0000.0,0007.95,0004.67,0004.37
2022-07-29 21:50:00,,0830.1,5.01,0.00,29.8,27.3,00.0,38.5,31.4,28.5,0000.0,0007.90,0004.66,0004.35
2022-07-29 21:51:00,,0830.1,4.99,0.00,29.8,27.1,00.0,38.5,31.3,29.1,0000.0,0007.94,0004.67,0004.34
2022-07-29 21:52:00,,0830.1,4.99,0.00,29.7,27.2,00.0,38.5,31.2,29.5,0000.0,0007.74,0004.63,0004.33
2022-07-29 21:53:00,,0830.0,5.01,0.00,29.6,27.3,00.0,38.5,31.2,29.7,0000.0,0007.79,0004.63,0004.32
2022-07-29 21:54:00,,0829.9,5.01,0.00,29.6,27.5,00.0,38.4,31.3,29.3,0000.0,0008.16,0004.62,0004.31
2022-07-29 21:55:00,,0829.8,5.00,0.00,29.6,27.7,00.0,38.4,31.3,29.8,0000.0,0008.27,0004.58,0004.27
2022-07-29 21:56:00,,0829.8,5.00,0.00,29.6,27.8,00.0,38.4,31.4,29.7,0000.0,0008.22,0004.55,0004.21
2022-07-29 21:57:00,,0829.8,5.00,0.00,29.6,28.0,00.0,38.4,31.4,29.8,0000.0,0007.61,0004.48,0004.16
2022-07-29 21:58:00,,0829.8,5.00,0.00,29.6,28.1,00.0,38.4,31.5,29.4,0000.0,0007.63,0004.43,0004.09
2022-07-29 21:59:00,,0829.8,4.98,0.00,29.7,28.3,00.0,38.4,31.5,28.9,0000.0,0007.63,0004.39,0004.03
